User: anonymous   Login
Location: Unspecified
(0.0000°N, 0.0000°E)
Time: 23:02:11
(UTC+00:00)
Language:

GHOST-3 - Orbit

View from above orbital plane
View from above orbital plane
View from above satellite
View from above satellite

Ground track
Ground track

The orbit is defined by the following mean orbital elements,

1 56958U          26145.46676615 +.00000000 +00000-0 +33684-3 0 00002
2 56958  97.6185 292.8384 0006359  26.2508 333.9062 15.47037390    08
Epoch (UTC): 25 May 2026 11:12:08
Eccentricity: 0.0006359
inclination: 97.6185°
perigee height: 421 km
apogee height: 430 km
right ascension of ascending node: 292.8384°
argument of perigee: 26.2508°
revolutions per day: 15.47037390
mean anomaly at epoch: 333.9062°

The dashed part of the orbit path shows where the satellite is in the earth's shadow,  

DLR